RH
26 38 44 42 37 30 26 24 23 24 23 25 29 31 32 33 31 25 23 21 18 23 24 22 24 22 20 18 16 15 15 15 15 14 14 17 21 26 29 32 32 32 33 29 24 24 23 23 23 22 22 21 20 19 19 18 18 18 19 21 24 25 26 29 38 42 40 46 55 61 66 69 72 78 80 83 88 91 94 96 95 92 89 88 85 85
31 45 46 36 30 26 24 23 22 23 24 26 30 34 34 35 33 26 23 22 19 24 26 22 24 23 20 20 17 16 17 16 14 16 20 25 29 31 32 36 35 33 30 26 25 26 25 25 24 23 23 22 21 20 19 19 18 19 20 23 25 28 31 37 50 58 56 58 63 69 78 83 86 92 91 89 87 86 91 96 94 85 76 70 66 68
44 47 39 29 26 25 25 24 23 25 27 31 34 38 41 37 33 29 23 21 20 24 27 24 26 26 21 20 19 18 17 15 18 24 28 30 34 37 39 41 39 34 31 29 32 34 32 29 26 25 24 23 23 22 21 21 21 21 20 22 23 24 27 32 44 61 72 73 69 69 74 74 73 78 79 77 75 73 79 87 88 84 78 74 73 74
51 43 30 26 25 26 26 24 26 28 30 35 37 40 43 37 36 36 26 21 22 24 26 26 28 27 22 21 19 18 16 16 25 30 30 32 37 42 43 43 44 43 41 40 40 41 38 35 31 27 25 25 24 23 23 23 23 23 23 23 22 22 23 24 29 40 52 56 55 56 60 59 58 58 56 55 55 54 59 66 68 70 70 70 70 72
43 32 24 25 26 27 29 29 32 35 36 38 40 41 41 35 34 35 29 27 26 27 26 27 35 35 27 25 21 17 14 19 28 30 32 36 39 43 44 45 48 49 47 45 44 43 41 40 38 32 28 26 25 25 25 25 25 25 26 26 26 25 24 23 24 27 30 32 36 42 48 52 55 56 53 51 47 43 42 44 46 48 50 52 54 56
34 28 26 29 30 31 34 35 36 40 43 41 41 41 35 32 33 34 35 36 38 42 33 30 48 50 32 27 25 19 17 22 28 29 33 39 41 43 46 47 49 49 48 47 43 41 39 39 40 37 32 29 28 28 29 29 29 28 28 28 28 28 27 26 26 25 25 27 31 37 44 52 59 64 67 66 59 51 45 41 41 40 40 41 43 44
31 29 33 37 36 38 43 43 39 41 44 43 45 45 34 31 38 38 38 41 48 50 34 28 49 54 38 30 27 22 21 25 29 30 34 39 43 46 47 49 50 49 48 46 43 40 37 36 37 38 35 32 31 31 31 31 31 30 30 30 30 29 29 29 28 28 27 27 28 30 34 39 46 53 60 61 56 51 48 46 45 43 41 40 41 42
32 34 41 43 40 44 50 46 40 40 44 47 48 46 37 32 38 40 40 47 49 45 39 33 40 52 51 38 27 23 24 28 31 32 36 40 44 47 48 50 50 49 47 44 42 41 39 37 35 36 36 33 32 31 31 31 31 32 31 31 31 31 31 30 30 30 29 29 29 29 29 30 33 37 39 42 41 40 41 42 42 42 41 41 42 43
33 43 49 47 47 49 46 42 40 36 40 50 49 41 37 35 38 39 45 51 47 48 54 46 40 55 59 40 27 24 24 31 34 34 38 41 44 48 49 52 51 49 47 43 40 39 38 37 34 35 35 34 33 32 31 31 32 33 33 33 33 32 33 33 33 33 32 32 31 31 31 30 31 32 32 33 33 34 36 38 41 42 41 40 40 42
35 42 41 42 49 45 38 47 52 41 39 47 46 40 39 41 43 44 49 50 47 54 61 50 44 56 59 42 31 28 25 32 36 35 40 44 46 50 50 52 53 50 48 43 38 36 36 35 34 34 34 34 33 33 33 33 33 33 33 33 33 33 34 34 34 34 34 34 34 34 33 33 33 33 33 33 32 31 32 35 38 42 44 44 43 42
32 33 33 36 41 35 36 51 58 52 47 43 42 44 46 50 50 50 50 46 53 64 59 48 42 48 62 53 33 28 27 30 35 38 44 47 48 51 52 53 53 51 48 43 37 36 36 34 33 33 33 33 33 33 33 33 33 34 34 33 33 34 34 34 35 34 34 35 34 34 34 34 35 34 35 34 34 34 34 34 37 40 44 49 51 50
39 39 38 34 31 29 38 49 51 52 48 40 41 43 49 56 52 52 54 51 64 70 55 47 40 41 61 55 29 23 24 26 33 38 44 49 50 53 55 55 53 51 49 43 38 37 35 33 32 32 33 33 33 33 34 34 34 34 34 35 35 35 35 34 34 34 34 35 35 35 35 35 36 36 36 36 36 37 37 37 39 40 42 47 52 56
54 50 42 37 34 31 38 45 49 53 47 43 44 44 55 63 56 59 66 65 70 65 48 46 45 45 52 40 23 22 27 29 32 35 42 49 53 55 57 56 53 51 48 41 37 35 33 32 31 31 31 32 33 33 33 34 34 34 35 35 35 34 34 34 34 34 34 34 34 34 35 35 36 36 37 37 38 39 40 40 41 42 43 44 47 51
57 56 47 47 44 37 36 41 52 58 51 47 48 52 62 63 59 64 64 63 63 55 44 40 44 53 48 32 27 32 40 45 40 39 46 50 53 55 56 56 55 52 47 39 35 34 33 32 30 29 29 30 30 30 32 34 35 35 35 35 34 33 32 31 31 31 32 32 33 34 34 34 35 35 36 37 38 39 40 41 41 42 43 44 45 46
54 58 52 52 48 40 36 35 43 51 50 45 44 52 59 55 58 63 59 62 65 57 48 41 46 54 45 35 39 42 47 52 49 49 51 51 53 54 53 54 54 53 46 37 34 32 31 31 29 29 27 27 28 30 33 35 35 35 34 33 33 31 29 28 28 27 28 28 29 31 32 33 34 35 35 36 36 37 38 38 39 40 41 42 43 45
50 54 50 50 42 37 41 35 31 41 50 49 44 53 60 52 51 59 61 61 63 65 58 50 52 46 31 33 43 44 48 51 51 52 52 52 52 51 52 52 51 50 43 35 33 31 30 30 29 30 30 31 33 34 35 35 35 35 33 32 30 28 26 25 24 23 22 23 24 25 26 28 30 32 34 35 36 36 37 38 38 39 39 40 40 41
49 54 57 53 40 35 42 39 33 39 49 52 52 58 57 46 43 56 64 55 55 71 61 46 51 42 27 34 42 44 49 48 49 50 50 52 52 52 53 52 50 47 39 34 33 31 30 30 30 32 33 34 36 36 36 35 34 32 30 28 26 23 22 20 19 18 17 17 17 17 18 20 21 23 26 28 31 32 34 36 37 39 40 40 41 41
54 59 59 54 49 44 38 39 38 35 41 52 58 55 46 46 48 51 61 61 63 74 58 41 48 45 37 43 44 46 50 48 49 50 49 50 51 52 52 51 49 45 40 36 33 31 32 32 33 34 34 35 35 35 35 34 32 30 27 24 22 19 17 15 14 12 12 12 12 12 12 12 13 14 16 18 20 22 25 27 30 33 35 38 40 41
55 64 60 51 57 53 36 40 46 38 38 48 53 48 42 55 64 55 60 72 74 75 63 48 47 44 41 43 42 44 48 49 50 49 48 49 49 51 50 48 46 43 40 36 33 33 34 34 35 36 36 36 34 34 33 31 29 27 25 22 19 17 13 12 11 10 9 9 9 9 8 8 9 9 9 10 11 12 14 16 18 20 24 27 31 35
55 68 73 61 59 56 43 50 59 50 45 45 47 47 42 51 63 58 57 65 69 73 71 62 58 51 43 40 41 42 44 47 48 48 49 48 47 49 50 47 44 40 38 37 36 37 36 37 39 39 38 37 35 34 32 30 28 25 22 20 17 15 12 10 10 8 8 8 8 8 7 7 7 6 7 7 7 7 7 8 9 10 13 15 17 21
55 65 74 64 56 57 55 56 57 52 51 51 54 54 49 50 56 58 58 57 62 73 75 73 73 59 45 44 44 42 43 44 47 51 52 49 47 49 49 46 42 39 38 38 38 39 39 40 41 40 39 35 32 30 26 23 22 19 17 15 13 12 10 9 8 7 7 7 7 7 6 6 6 6 6 6 6 7 6 7 7 6 7 8 8 10
58 64 71 67 61 60 55 46 43 46 49 53 57 58 55 55 58 68 71 58 56 67 68 74 81 65 49 49 46 43 47 48 49 52 52 48 47 47 46 44 42 41 42 41 40 41 41 40 40 38 34 30 25 20 16 13 12 11 10 9 8 8 7 7 7 6 7 7 7 8 8 8 8 7 7 7 7 7 7 7 7 7 7 6 6 6
63 69 76 73 65 58 51 43 42 45 45 47 55 56 57 59 59 71 79 68 64 67 60 67 81 72 58 54 48 46 48 47 48 49 48 48 47 46 46 45 45 44 43 43 43 43 42 41 41 38 30 24 18 14 11 10 8 7 7 7 7 6 6 6 6 6 6 6 7 9 10 9 9 9 8 7 7 7 7 8 7 8 8 8 8 7
68 74 82 82 69 58 54 48 45 48 49 54 59 56 59 64 64 71 81 82 86 83 72 78 86 75 67 61 50 47 47 45 46 46 45 47 46 46 48 46 46 45 44 43 44 43 43 42 39 33 24 17 13 10 9 8 8 7 7 7 7 6 6 6 6 6 6 6 7 8 8 9 9 9 8 8 8 8 8 8 7 7 8 8 8 8
77 78 84 92 86 75 67 56 54 65 71 72 71 65 63 65 67 75 80 86 94 86 78 93 93 70 64 66 55 50 51 48 45 45 45 46 45 46 47 46 45 45 44 43 43 43 41 36 28 21 17 14 12 10 8 8 8 7 7 8 8 8 8 8 7 7 7 6 7 7 7 7 8 8 8 8 8 8 8 8 7 7 7 7 7 7
77 78 81 92 93 87 78 65 63 74 76 70 67 64 61 59 61 69 77 85 89 76 70 85 82 60 57 65 61 57 58 54 48 45 45 46 46 46 46 46 45 45 44 42 41 38 31 24 18 14 13 12 10 9 8 8 8 8 8 9 10 10 10 10 10 10 10 10 9 9 9 9 9 9 10 9 9 8 8 8 7 7 7 7 6 6
74 77 79 87 88 82 76 68 64 69 71 68 64 60 59 58 57 63 74 78 74 71 71 67 60 56 55 54 55 56 58 59 55 51 48 47 48 48 46 46 46 46 45 42 36 28 19 15 14 12 12 11 10 10 10 9 10 10 10 10 11 12 12 12 12 12 12 12 12 12 11 11 11 11 12 13 12 11 10 10 10 9 9 8 8 7
76 82 78 79 82 77 72 67 60 60 62 60 59 58 57 57 57 62 71 67 63 78 82 61 51 61 57 48 52 53 49 49 49 48 49 49 50 50 49 50 52 52 50 43 33 23 17 17 16 13 13 12 11 12 12 12 13 13 13 14 15 16 16 17 17 18 18 18 18 19 17 16 16 14 14 15 14 14 14 14 14 13 12 12 11 10
77 84 72 68 73 67 61 58 52 53 55 52 55 58 57 58 60 62 64 59 58 74 75 56 54 63 58 51 53 49 43 43 43 43 44 46 50 54 56 58 59 56 52 46 39 31 26 26 24 21 18 17 17 18 18 19 20 21 23 24 25 27 28 28 27 27 28 28 28 29 28 27 25 23 22 20 18 17 17 17 17 17 16 16 15 15
74 84 70 65 74 70 65 63 60 61 62 58 59 59 55 56 57 57 59 55 54 61 60 55 60 61 53 50 50 46 45 46 46 47 48 49 53 57 59 59 56 52 48 45 43 39 36 36 36 34 32 30 31 32 33 34 35 35 37 38 39 41 40 40 38 37 38 38 37 36 34 32 31 29 27 25 23 21 19 18 18 17 17 17 17 17
78 84 66 62 78 78 68 67 66 65 66 66 66 64 61 62 62 63 64 61 61 64 58 57 65 60 49 50 52 48 46 46 47 48 49 51 54 57 57 55 51 48 44 40 37 36 36 37 37 36 36 38 40 42 44 46 46 48 49 50 51 52 53 53 51 50 50 49 47 46 44 41 38 34 30 26 24 22 20 18 16 15 14 14 14 14
79 81 65 67 87 82 65 66 68 65 71 79 77 71 68 68 67 66 64 60 61 62 60 63 67 60 53 54 54 49 46 47 45 42 42 43 46 50 52 49 47 46 44 41 38 35 34 35 35 35 36 38 41 43 46 49 52 54 56 57 59 60 61 61 59 58 57 56 55 54 52 49 44 37 31 27 24 22 19 17 14 12 11 10 10 11
79 82 75 77 92 85 67 68 71 71 84 88 72 62 62 64 63 62 61 58 54 56 64 68 65 62 60 56 51 51 53 48 38 34 36 37 37 39 39 37 38 38 38 39 39 38 37 35 34 36 37 39 41 44 47 51 53 55 57 59 62 63 63 62 61 60 59 58 57 55 51 47 42 36 31 27 25 23 20 18 15 12 11 9 8 8
80 85 83 77 88 91 73 67 76 87 94 81 56 48 51 53 56 59 58 54 49 50 56 56 55 61 63 54 45 45 44 37 30 29 30 32 34 35 32 29 30 30 29 32 35 38 40 40 40 39 39 41 43 46 49 52 53 55 57 60 62 63 63 62 61 60 59 56 53 50 46 43 40 36 32 28 26 25 22 20 19 16 15 15 13 10
84 90 87 78 87 91 74 75 93 94 78 62 54 52 46 43 48 54 54 50 45 45 47 47 48 51 48 40 35 34 31 29 29 29 28 30 31 32 32 31 30 31 31 32 33 34 34 36 41 43 42 43 46 50 53 55 55 56 58 60 62 62 62 62 61 59 55 49 45 41 39 38 37 34 30 27 28 28 28 28 27 24 24 25 24 20
85 89 85 80 85 85 82 90 95 76 53 50 56 54 48 48 51 57 63 56 42 43 52 54 49 43 36 32 31 31 31 31 32 30 30 31 31 32 35 36 34 33 31 29 30 31 30 31 38 47 48 47 49 53 57 58 59 60 61 62 63 62 61 60 56 51 45 40 36 34 33 32 32 29 27 28 31 33 34 35 33 31 32 34 35 34
78 84 85 86 82 79 86 87 73 61 55 50 50 50 52 54 53 60 75 68 52 54 62 57 49 44 39 34 32 32 34 40 46 41 33 32 32 33 34 34 33 32 31 31 33 35 37 39 44 52 54 52 54 59 60 61 62 62 62 62 61 59 56 51 45 39 35 32 30 28 28 29 29 28 29 31 34 35 36 38 39 40 43 46 46 45
72 76 80 88 81 73 83 86 78 79 71 55 52 55 54 51 46 51 69 76 71 68 60 50 48 46 39 35 34 34 40 58 66 51 35 34 34 32 33 34 34 35 35 38 40 39 42 44 47 54 58 58 59 60 60 60 61 60 60 59 56 51 45 39 34 31 28 26 25 24 24 26 29 30 33 36 39 41 43 45 47 48 49 51 53 52
67 69 73 87 88 79 86 93 87 80 68 58 60 57 50 46 40 43 59 71 73 62 43 39 45 41 36 37 34 34 50 75 77 52 35 36 35 32 34 34 34 38 39 41 44 44 46 47 49 55 57 56 56 57 57 58 58 59 58 54 48 41 34 30 27 24 22 20 20 21 22 27 33 37 41 45 47 49 51 51 51 51 52 53 56 57
76 78 83 95 95 85 88 94 85 69 58 56 56 51 46 40 38 54 71 72 68 54 33 33 42 37 35 38 36 40 57 71 65 45 35 37 35 32 34 34 35 38 40 43 46 47 50 52 53 54 54 54 55 56 57 58 57 56 51 43 36 31 26 24 21 19 18 18 19 23 28 35 42 46 50 52 52 53 53 53 54 55 55 55 56 56
89 87 87 93 95 89 89 94 88 69 56 53 50 42 39 40 50 71 75 62 60 52 34 33 41 38 38 39 38 43 48 44 40 35 33 34 34 33 34 35 36 40 42 45 47 48 51 53 53 53 54 56 57 57 57 57 53 47 39 32 28 25 22 20 18 17 19 20 24 32 38 44 50 52 53 54 54 55 55 56 58 58 57 58 58 58
87 92 91 88 87 85 82 85 87 73 51 45 46 37 36 55 74 74 57 45 50 47 36 37 41 38 40 41 38 40 38 32 34 36 34 35 36 36 37 36 38 41 43 46 49 50 51 52 53 55 56 56 58 58 55 50 42 35 30 26 24 22 19 18 19 20 24 28 34 41 46 49 52 53 54 55 57 59 58 58 60 60 60 63 63 62
65 80 89 79 69 74 79 82 92 85 53 36 43 43 47 66 71 53 39 41 43 38 36 40 39 36 40 41 38 39 37 35 37 36 36 38 38 38 39 39 40 44 45 48 50 49 51 53 54 55 56 57 58 53 45 39 33 29 27 24 21 20 19 21 25 28 32 37 43 47 49 51 52 54 57 60 61 63 62 61 62 64 68 72 74 76
54 63 74 62 52 67 81 74 73 71 48 33 42 46 45 50 47 37 38 44 42 40 41 41 38 36 37 37 37 39 38 37 38 38 38 40 40 40 42 41 43 46 48 49 50 50 53 55 55 56 59 57 51 43 36 33 30 26 23 21 20 22 25 28 33 37 41 45 48 49 50 52 54 58 61 63 65 66 66 69 73 76 78 81 85 87
57 50 53 49 41 50 61 52 42 41 35 32 39 38 32 33 32 33 38 39 38 39 39 38 38 37 36 37 37 37 37 38 39 39 40 41 42 43 44 44 45 48 49 49 51 53 55 56 57 60 58 49 41 35 32 30 27 23 21 22 24 29 33 37 41 45 48 49 50 50 52 55 58 62 64 66 69 72 74 77 80 80 80 83 87 90
44 37 41 45 41 39 43 38 32 32 31 29 34 34 32 33 31 31 35 36 35 36 35 35 37 36 36 39 37 37 39 39 40 42 43 44 45 46 47 49 51 51 51 52 54 56 58 59 60 56 48 39 35 33 30 28 25 23 23 27 32 38 42 45 48 49 51 51 51 54 57 59 60 63 65 67 71 74 75 76 78 80 83 87 90 93
41 40 43 47 49 50 49 40 32 33 31 28 31 32 30 30 29 29 32 34 34 35 35 35 36 35 36 38 38 39 41 40 42 45 45 46 48 49 51 53 53 53 55 56 58 60 60 59 55 46 38 34 33 30 27 25 24 25 30 36 42 46 49 51 52 51 51 53 55 58 61 63 64 66 69 72 73 75 76 77 81 87 92 94 95 96
45 43 48 50 49 50 49 38 30 31 30 26 30 32 29 30 30 28 30 31 31 34 34 33 34 35 36 38 39 41 43 44 46 48 49 50 52 52 53 54 54 56 59 60 61 62 59 53 45 38 35 34 30 27 26 24 25 31 39 46 50 52 53 53 53 53 54 56 60 63 64 68 71 74 77 78 78 79 82 84 87 93 97 97 98 100
42 45 47 48 49 50 48 39 34 37 37 31 32 33 30 31 32 30 31 31 31 32 33 33 35 37 38 40 42 44 46 48 49 50 52 53 53 54 55 56 57 60 62 63 63 60 52 44 39 36 35 32 28 26 25 24 28 38 48 54 56 55 54 53 53 55 57 60 64 68 71 75 79 82 83 83 83 85 87 88 92 99 101 101 101 102
46 52 47 49 61 63 53 42 38 44 46 37 31 31 31 31 31 31 32 32 32 33 34 34 37 39 41 43 45 47 49 50 52 53 54 55 55 57 58 59 61 63 64 65 61 53 44 40 38 36 34 30 27 26 25 26 34 46 56 58 57 56 55 55 56 58 61 65 69 73 79 83 85 85 86 87 89 92 93 93 95 98 101 103 102 101
48 50 44 49 59 56 44 36 36 40 43 36 30 31 32 31 32 33 33 33 34 35 36 37 39 42 45 46 48 50 51 53 54 55 56 57 58 59 61 62 64 66 66 63 54 45 41 40 38 35 31 28 26 26 27 32 42 55 60 60 57 57 57 58 61 63 66 70 75 81 86 89 87 87 88 89 92 97 100 98 95 91 91 97 101 102
Wind_Speed
9 4 3 4 7 9 9 9 9 8 8 8 6 5 5 6 7 7 10 6 4 2 4 4 6 7 9 10 14 26 26 19 20 22 16 8 10 19 21 19 17 18 16 12 11 11 11 11 11 9 8 7 6 6 5 3 3 2 2 1 2 4 4 4 4 4 4 5 6 7 9 11 12 14 16 18 20 22 23 25 26 28 30 29 28 28
6 4 5 8 11 12 9 9 8 6 7 7 4 5 5 5 7 7 9 6 3 1 4 4 6 8 10 12 17 20 15 12 13 7 8 18 23 20 19 19 17 16 14 14 15 17 18 18 17 17 16 15 13 13 12 10 7 5 4 3 3 4 5 6 4 2 3 3 3 4 5 6 7 9 12 13 14 16 18 23 26 27 27 26 25 24
3 4 8 13 13 10 9 10 7 6 6 6 4 4 4 6 6 7 6 2 3 1 3 5 7 7 10 15 17 15 12 9 4 16 21 21 22 20 20 19 17 17 18 20 21 23 23 23 23 23 22 22 21 20 19 18 15 12 8 5 4 3 3 5 6 4 2 0 2 3 5 6 7 9 10 11 12 12 13 18 21 23 23 23 22 21
4 5 11 15 13 9 9 8 6 5 4 4 4 3 5 5 4 4 2 2 3 2 5 7 6 5 10 14 13 17 16 0 20 27 24 22 22 22 21 19 19 19 20 22 24 25 26 27 28 27 27 27 26 26 26 25 24 21 18 14 11 9 6 5 4 3 2 1 0 1 4 5 6 8 8 9 10 10 10 12 14 16 17 18 19 19
6 7 6 7 6 6 7 6 5 5 3 5 6 6 6 6 6 4 2 5 5 5 4 4 5 4 7 9 7 11 10 8 21 23 23 22 21 20 20 20 19 18 19 22 24 26 28 29 30 30 30 30 30 32 32 31 30 28 26 23 20 18 15 12 9 5 5 5 4 3 2 2 2 4 5 6 7 8 8 9 10 11 11 12 13 13
7 7 3 3 3 3 3 4 5 4 3 5 5 5 6 5 4 3 4 5 4 4 2 1 3 4 5 7 6 6 5 6 14 16 18 18 18 20 20 18 16 17 19 21 24 27 29 30 30 31 32 33 34 34 34 34 33 32 31 30 28 27 24 22 18 15 13 10 8 7 6 5 4 5 5 6 7 8 10 11 10 10 9 9 10 10
3 2 3 2 3 3 3 5 6 4 3 4 3 2 2 1 2 2 2 1 1 3 3 2 2 4 4 6 7 10 6 6 10 10 13 16 18 18 18 16 14 16 18 21 24 26 29 30 30 31 32 33 34 34 34 33 32 32 32 31 31 30 30 28 26 24 21 19 15 12 10 7 5 4 3 3 5 6 8 9 10 10 9 8 8 8
3 3 4 2 2 3 4 5 5 6 4 3 2 2 4 2 1 1 2 3 3 4 5 5 5 5 5 5 10 13 7 8 9 7 10 14 17 17 17 14 13 16 17 20 24 24 26 29 29 30 31 32 32 31 31 31 31 31 30 29 29 29 29 29 28 26 25 23 21 19 16 13 10 8 6 5 7 7 8 9 9 10 9 8 7 7
1 4 3 4 4 4 4 2 2 5 4 2 1 1 2 1 1 2 3 4 4 3 4 5 6 3 5 5 8 10 6 8 8 7 8 12 16 17 15 13 13 15 17 20 23 24 24 26 28 28 28 29 30 29 30 30 29 28 28 27 27 27 28 27 26 25 24 24 22 21 19 17 15 12 11 10 10 10 10 11 11 12 12 11 10 9
0 4 4 5 5 4 3 1 3 1 3 2 1 0 0 2 3 4 4 3 2 3 5 6 7 4 5 6 5 4 4 5 6 6 7 12 16 16 14 13 12 13 16 20 23 24 24 25 26 25 26 27 28 28 27 27 27 26 26 26 26 27 27 26 25 24 23 22 21 20 19 18 17 15 13 12 12 12 12 11 12 12 14 14 14 12
2 4 0 3 5 3 4 3 3 3 3 2 1 1 3 4 4 3 3 2 1 4 7 8 10 8 3 6 3 2 3 7 8 6 7 11 15 16 14 12 12 13 15 19 22 22 22 23 23 24 25 26 26 26 26 26 26 25 26 26 26 27 26 26 25 24 23 22 21 20 19 18 18 17 16 15 15 14 13 12 11 12 12 13 15 16
3 2 0 4 7 4 5 2 2 3 3 2 0 1 3 3 2 2 1 2 1 4 6 6 8 11 5 4 3 1 4 10 10 9 10 10 14 17 15 12 13 13 14 18 21 20 20 21 22 23 24 25 25 26 26 26 25 25 25 25 25 26 25 25 24 24 23 22 22 21 19 19 18 17 17 17 17 17 16 15 13 12 12 11 12 15
3 5 4 3 4 6 4 2 1 2 2 3 2 2 1 2 0 1 1 1 3 5 4 5 2 5 5 5 6 4 4 5 7 11 13 14 16 17 15 13 13 13 14 19 21 20 20 20 21 22 23 24 24 24 24 24 24 24 24 25 25 24 23 23 22 22 22 22 22 21 20 19 18 17 17 17 17 17 17 16 16 14 13 12 10 11
2 2 4 3 1 6 7 4 2 1 2 5 4 4 3 1 1 3 3 2 3 4 2 4 5 1 3 4 5 1 7 10 14 18 19 18 19 18 16 14 13 12 15 19 20 19 19 19 20 21 22 22 22 22 22 22 23 23 23 23 23 22 22 21 21 20 20 20 20 20 19 19 18 18 17 17 17 17 17 17 17 17 16 15 13 11
3 3 3 4 1 7 10 6 4 3 5 7 5 4 4 3 3 4 3 3 3 3 3 1 1 1 2 1 2 7 12 16 20 22 21 20 19 18 16 14 12 12 15 18 19 18 18 18 18 18 19 19 19 19 20 22 22 22 22 22 21 20 20 19 19 18 18 18 17 17 17 18 18 18 17 17 17 16 16 16 17 17 18 17 17 16
4 4 2 1 1 8 8 6 4 3 2 4 1 3 2 3 3 3 4 4 4 5 4 3 3 4 3 3 6 9 12 15 17 19 20 18 17 17 15 12 11 13 16 17 17 16 16 16 15 15 15 15 16 17 19 19 20 20 20 19 19 19 18 18 17 17 17 16 16 16 16 15 15 15 16 16 16 16 16 16 16 16 17 17 17 17
2 3 1 1 1 4 3 3 2 2 1 1 2 1 3 2 2 2 5 4 4 5 5 5 5 4 4 2 6 8 9 9 10 13 15 15 15 15 13 12 11 13 15 15 14 14 14 13 13 12 13 13 15 16 17 17 18 17 17 16 16 16 16 17 17 17 17 17 17 17 16 15 15 14 14 15 15 16 16 16 16 16 16 16 17 17
1 2 3 3 2 2 2 5 4 3 1 3 2 3 1 2 1 1 3 3 4 6 5 6 7 5 4 3 3 6 7 7 6 7 11 13 14 13 12 12 11 12 12 11 12 11 10 10 9 10 11 12 13 13 14 15 15 15 15 15 15 16 16 17 17 18 19 19 19 19 19 18 17 16 15 14 14 14 14 14 15 16 16 17 17 17
2 1 4 2 0 1 1 3 4 4 1 3 1 1 1 1 1 2 3 2 5 7 4 6 8 6 5 3 1 4 7 8 6 6 7 9 11 12 12 11 11 11 10 10 9 8 7 7 7 8 8 9 10 10 11 12 12 12 13 13 14 15 16 16 17 17 18 19 20 20 20 20 19 19 17 16 15 14 14 14 14 15 16 17 18 18
2 0 2 2 1 1 2 2 1 2 2 2 2 2 1 2 3 3 2 2 5 7 5 5 6 5 4 2 2 2 7 9 7 6 6 7 11 11 10 10 10 10 9 8 7 6 4 4 4 6 7 7 8 8 8 9 9 10 11 12 13 13 14 15 16 17 17 18 19 19 19 20 20 20 20 19 18 18 17 16 16 15 16 16 17 18
1 2 3 1 0 1 0 2 5 4 3 1 1 2 2 2 2 2 2 3 4 5 4 5 6 4 2 3 3 5 7 7 8 7 6 9 11 10 10 10 9 8 7 6 5 3 2 3 5 7 8 9 10 9 9 8 8 9 10 12 13 14 15 16 18 19 19 19 20 20 21 21 21 21 21 21 21 21 20 19 19 18 18 18 18 19
0 2 2 2 2 2 4 4 2 2 2 1 2 4 4 3 2 3 5 5 4 4 4 5 7 4 1 2 3 5 4 5 9 9 8 10 11 11 10 9 7 6 5 4 3 1 2 4 6 8 9 10 10 10 10 10 10 10 11 12 13 14 15 17 18 19 20 21 21 21 22 23 23 23 23 23 23 23 22 22 22 21 20 20 20 21
2 1 1 4 5 6 8 7 7 6 4 3 2 3 3 3 2 4 6 3 2 4 5 6 7 3 2 2 2 5 5 8 12 12 11 10 10 10 9 7 6 5 4 3 2 2 4 5 6 6 7 6 7 7 8 9 10 11 11 12 12 13 13 15 16 17 18 20 21 21 22 23 24 25 26 26 26 26 26 26 25 24 24 23 23 22
3 2 1 3 4 6 9 9 9 8 6 5 3 1 0 2 2 3 4 1 1 4 5 6 6 2 1 3 3 6 9 10 11 11 11 11 10 9 8 8 7 6 5 4 4 4 5 6 6 5 4 4 4 5 6 7 9 10 11 12 12 12 12 13 14 15 15 17 18 19 21 23 24 25 26 27 28 28 29 29 29 29 29 28 27 26
1 1 1 1 3 4 5 6 5 3 3 1 2 3 2 3 5 3 3 2 2 5 7 5 4 2 1 1 3 5 7 7 8 10 11 12 12 12 11 10 9 8 7 6 6 6 6 5 4 3 2 3 3 5 6 7 9 10 11 12 13 13 13 13 14 14 15 15 17 17 19 20 22 23 25 26 27 28 28 29 30 31 32 32 33 32
1 1 2 2 4 5 5 4 2 1 2 2 3 5 6 7 8 6 3 3 4 5 5 4 6 5 2 2 1 3 4 5 8 11 12 12 13 13 13 13 12 11 9 8 7 7 6 5 4 2 2 3 4 6 7 8 9 10 11 12 13 15 15 16 16 17 17 18 19 20 21 22 23 24 25 26 26 27 27 28 29 30 30 32 34 35
1 1 2 5 6 6 7 7 4 3 3 4 6 7 8 9 9 6 4 6 6 5 5 7 10 9 7 7 6 3 4 5 7 11 14 14 14 14 15 15 15 12 10 9 8 7 6 5 4 4 4 5 5 6 7 8 8 9 11 12 13 15 16 17 18 18 19 20 21 22 23 25 26 28 29 30 31 30 30 30 31 31 31 31 33 34
1 2 4 7 7 7 9 9 9 8 7 7 8 10 11 10 9 8 8 8 5 5 8 10 10 11 10 10 9 7 6 6 5 8 13 16 17 17 16 15 13 11 10 9 9 9 8 7 6 6 6 6 7 7 7 8 8 9 11 12 13 15 16 17 18 19 20 21 22 23 25 26 27 29 31 33 35 36 36 36 36 36 35 35 36 36
2 3 5 5 6 8 9 10 9 9 8 8 9 10 12 13 13 12 11 10 7 8 11 11 13 14 11 10 10 9 9 9 9 10 10 11 13 14 13 12 10 9 9 9 10 10 9 9 8 8 9 9 9 9 9 10 11 12 13 15 17 18 19 19 20 21 22 23 24 26 27 28 29 30 32 33 35 37 38 39 40 41 41 41 40 40
2 3 4 4 5 8 9 9 8 6 7 9 11 12 14 16 16 14 12 13 12 13 14 14 15 15 11 8 6 5 7 8 8 9 6 1 4 7 8 8 8 8 8 10 11 11 11 11 12 12 12 12 12 12 12 13 14 15 17 19 22 23 23 24 25 26 27 29 30 31 32 33 33 34 35 35 36 38 39 40 41 43 44 44 44 44
1 2 2 1 2 6 9 8 6 5 7 9 11 14 16 16 15 13 12 13 12 13 14 14 14 12 6 1 3 4 6 7 7 7 5 3 1 4 5 5 6 7 8 10 11 12 13 14 14 14 13 13 13 13 14 15 15 16 18 19 21 22 23 24 26 28 31 33 35 36 37 37 38 38 39 39 39 40 40 41 42 43 44 46 46 47
1 2 2 1 2 7 8 7 6 5 5 8 13 17 18 15 13 12 11 10 11 13 14 12 11 9 2 4 4 2 4 6 7 7 5 3 1 2 3 4 5 7 8 10 12 14 15 15 16 15 15 14 13 14 14 15 16 17 18 19 20 21 21 22 24 27 31 33 35 36 37 38 39 40 41 41 42 43 44 45 46 47 48 49 50 50
2 1 1 2 3 6 7 6 3 1 3 8 12 13 14 14 13 12 11 11 13 13 10 9 7 5 1 3 2 2 4 6 7 7 6 4 2 1 3 6 7 8 10 12 13 14 16 17 18 17 17 16 15 15 15 15 16 17 19 20 21 21 21 23 26 29 32 33 34 36 37 38 39 41 43 44 45 46 47 48 50 51 52 53 54 55
4 3 3 3 3 5 7 5 1 2 7 9 4 4 8 10 10 10 10 11 11 8 6 7 6 2 3 3 3 3 4 5 6 6 5 5 5 6 8 9 10 11 12 12 14 15 16 17 19 19 19 18 17 16 15 16 17 18 19 20 21 22 23 26 30 32 34 36 36 37 37 38 39 42 44 46 47 48 49 50 51 53 54 54 56 57
4 4 4 4 3 4 4 3 3 8 9 4 1 4 6 5 6 9 10 10 10 9 9 9 5 2 6 7 7 6 5 5 7 9 10 9 9 10 12 13 14 13 13 14 15 16 16 16 17 19 19 18 17 17 17 17 18 20 21 21 23 25 27 30 32 35 36 38 39 38 39 40 41 44 46 48 48 48 49 50 51 52 53 53 55 57
5 4 4 3 4 3 3 4 7 7 4 3 3 3 1 2 5 7 8 8 8 7 5 1 4 7 8 8 7 5 5 6 9 14 14 12 11 12 13 15 14 14 14 15 16 17 18 17 17 18 19 19 19 19 19 20 21 22 23 24 26 28 30 32 34 37 38 39 40 41 42 43 45 47 49 49 48 48 49 50 51 52 53 53 55 57
7 5 3 3 4 4 4 7 7 7 8 8 6 3 1 2 3 3 3 4 4 2 2 6 7 7 7 6 4 4 5 5 8 13 14 11 8 10 11 12 12 12 13 13 14 16 17 17 17 18 18 19 20 20 22 24 24 25 26 27 29 31 33 35 37 39 40 42 44 45 46 46 47 49 49 49 49 50 51 52 53 53 53 53 54 56
7 6 5 4 5 4 4 6 6 7 8 5 3 2 2 4 2 1 0 2 3 1 6 11 8 5 5 3 3 3 4 3 3 9 12 8 5 5 7 9 10 11 12 13 14 16 17 17 17 17 18 19 21 23 25 26 27 28 29 32 34 36 37 39 41 43 45 47 48 49 50 50 49 50 50 50 51 52 52 53 54 54 53 52 53 55
2 4 5 4 5 5 5 6 7 7 6 2 5 4 3 5 6 7 4 3 2 3 10 12 7 5 4 1 4 2 1 1 3 8 10 7 7 9 9 11 12 12 13 13 15 17 18 18 19 19 21 23 26 27 27 28 29 31 34 36 37 39 40 42 45 48 50 51 52 53 53 52 51 51 51 51 52 52 53 53 54 54 53 52 52 54
1 2 3 5 7 8 7 7 6 5 4 3 6 4 1 4 7 6 6 6 4 7 8 7 3 2 2 3 5 3 4 5 7 12 14 12 14 16 16 17 17 15 15 15 16 17 19 20 22 24 25 26 27 28 29 30 33 35 36 37 38 40 43 46 48 50 52 53 53 53 53 52 52 52 51 52 53 53 53 53 53 53 53 52 52 53
2 1 3 6 8 9 9 7 5 5 6 6 6 7 3 4 5 3 8 5 8 11 6 1 3 5 5 7 7 8 10 12 15 17 18 18 19 20 19 19 17 16 16 17 19 20 22 24 26 26 27 27 27 29 31 33 35 36 36 38 40 43 46 48 50 51 52 52 53 53 53 53 53 53 54 54 54 54 55 53 52 52 52 52 51 51
3 1 2 5 6 6 7 6 6 6 4 5 3 7 6 4 1 6 5 6 13 15 7 5 8 10 10 12 13 14 16 18 17 17 18 19 19 19 19 19 18 17 17 19 21 23 26 27 27 27 27 28 29 31 33 34 34 35 37 40 43 45 47 49 50 50 51 52 53 54 54 55 55 55 55 54 53 54 55 54 52 51 50 49 48 49
4 3 3 5 5 4 4 6 7 6 3 7 5 0 4 6 4 5 6 9 14 14 8 8 11 13 13 14 16 16 17 17 17 17 17 17 17 18 19 19 19 18 19 20 23 26 28 28 28 28 28 29 30 32 32 33 34 37 40 43 44 46 47 48 48 49 51 52 54 54 55 55 55 54 54 54 53 53 53 53 51 49 47 45 45 45
2 3 3 3 4 5 4 5 5 3 3 8 8 4 6 9 10 8 6 9 13 14 12 12 14 16 15 14 16 17 16 16 16 17 17 17 18 19 19 19 19 20 22 23 26 28 29 28 28 29 29 30 31 31 32 33 37 40 42 44 45 45 46 46 47 49 51 52 53 54 54 54 54 53 53 52 51 51 51 49 48 46 45 43 42 43
5 7 7 7 5 5 5 6 4 5 8 8 11 11 12 15 18 17 13 12 14 16 17 16 17 17 15 14 16 16 16 17 17 18 18 19 19 19 19 20 22 24 25 26 28 29 29 28 29 29 30 30 30 31 33 36 39 42 43 43 43 43 44 46 48 49 50 51 52 53 53 53 53 52 51 51 50 50 49 48 47 46 44 43 42 43
9 11 9 6 5 5 7 10 10 13 18 17 15 16 17 19 23 24 23 23 25 26 24 21 19 18 16 14 14 15 17 19 20 20 21 21 20 20 21 22 23 25 26 27 28 29 28 28 29 29 29 29 29 32 35 38 40 42 42 41 41 42 44 46 47 48 49 50 51 51 51 52 53 52 52 51 49 48 47 46 45 44 43 42 43 43
9 14 10 5 6 6 5 7 8 12 20 23 22 21 21 22 26 27 27 27 26 23 21 18 17 16 15 14 15 17 20 21 21 22 23 22 21 22 22 23 24 25 27 27 28 28 28 28 29 28 28 29 31 34 38 40 41 41 39 39 40 41 43 44 46 47 49 49 50 50 51 51 52 51 49 47 45 44 43 42 41 42 42 42 42 43
7 12 10 6 8 9 6 8 14 20 25 26 25 23 22 24 26 26 26 27 24 20 19 18 17 16 16 17 19 21 22 22 22 22 22 21 22 23 24 25 26 26 27 27 27 27 28 28 27 28 29 31 34 37 39 41 40 38 36 37 38 40 42 43 44 46 48 48 49 49 49 49 48 47 46 44 42 42 42 41 41 41 41 40 41 43
10 9 7 5 6 7 6 9 15 17 19 23 27 27 27 28 29 28 27 26 24 22 21 19 19 18 18 20 22 22 23 23 22 21 22 22 23 24 25 26 27 27 27 27 27 27 27 27 27 28 30 34 36 39 40 40 38 35 34 35 36 38 40 42 44 46 47 47 48 47 46 45 44 43 44 44 44 43 42 41 41 40 41 40 39 40
11 8 7 6 6 6 6 9 12 10 8 16 25 27 26 25 25 25 25 23 21 21 20 18 18 19 20 22 24 24 24 24 23 23 23 23 24 25 26 26 26 26 26 26 26 26 25 26 28 30 33 36 38 40 40 39 35 33 32 34 35 36 39 41 44 45 46 46 45 44 43 43 43 43 43 44 45 45 44 43 40 39 39 40 39 37
15 12 10 8 7 8 10 14 17 14 12 18 25 26 24 22 19 19 20 20 20 21 21 21 21 21 22 25 26 26 26 25 24 24 24 24 24 25 25 25 25 26 26 26 26 25 25 27 29 32 35 37 38 39 39 36 33 31 31 32 33 35 37 40 42 44 44 44 43 42 41 42 43 44 44 44 44 45 45 46 44 41 39 38 38 38
Wind_Direction
174 162 187 206 232 234 232 232 234 239 252 272 275 271 282 283 276 272 277 291 78 95 270 282 292 292 288 282 273 274 278 280 277 279 289 323 51 72 74 70 66 63 59 55 52 52 55 60 63 64 63 60 55 52 54 66 68 59 68 94 85 64 55 57 40 2 347 335 309 294 286 280 275 270 265 259 254 252 252 254 254 254 256 258 260 259
171 193 215 217 235 242 250 264 272 282 287 289 287 283 285 276 272 274 280 288 86 97 279 299 296 289 291 283 274 275 279 273 274 303 33 65 70 67 65 66 68 69 71 74 68 63 66 70 70 70 68 64 60 57 55 57 58 63 87 108 117 113 104 107 106 55 16 358 318 304 299 295 283 271 270 268 265 259 251 251 255 260 264 269 272 270
196 228 230 230 241 251 261 270 275 281 290 296 291 289 280 263 274 284 275 264 99 116 287 300 292 288 287 280 278 281 273 273 28 72 74 75 71 62 61 60 62 68 71 71 66 62 65 68 71 72 69 66 64 62 59 58 56 57 63 64 68 89 109 124 134 137 120 187 246 253 264 280 282 272 277 283 285 282 264 254 258 266 273 278 280 278
199 221 229 232 241 250 257 263 272 273 266 262 252 251 262 257 269 274 255 61 34 300 277 286 288 282 276 271 274 274 265 63 80 82 81 79 76 70 68 63 60 62 64 66 64 61 62 65 69 71 71 70 68 65 62 59 57 55 54 50 48 46 38 51 94 134 132 115 244 262 260 271 279 279 288 294 294 296 289 280 279 282 286 288 289 287
232 251 243 223 229 246 261 273 274 272 268 250 231 224 244 249 251 260 335 5 339 302 278 294 298 261 257 273 289 277 261 96 87 86 81 79 80 77 73 66 60 58 62 65 64 63 63 63 66 70 73 72 69 67 63 61 60 58 57 55 53 51 46 46 50 53 58 64 69 65 55 22 342 338 340 327 315 315 312 309 309 307 306 306 304 300
246 262 250 176 193 216 241 266 252 236 264 264 239 231 243 249 266 308 353 357 338 302 267 59 315 247 238 281 294 275 250 103 89 89 86 82 80 79 74 68 62 59 62 65 67 69 69 67 65 69 73 74 73 71 68 65 64 62 61 60 59 58 55 54 53 47 43 45 50 55 62 62 55 48 29 353 336 333 329 329 330 324 321 319 316 312
232 180 98 135 197 193 210 254 251 221 239 258 251 312 326 61 54 358 322 314 247 269 238 185 272 258 247 262 260 257 236 119 92 90 92 86 82 80 78 76 70 66 62 64 67 69 72 72 68 65 69 73 73 73 71 68 65 63 61 60 59 58 57 57 56 52 49 47 45 44 49 54 61 78 69 340 332 337 335 335 338 336 332 330 328 322
201 148 78 93 180 196 214 247 237 191 197 237 238 353 15 58 54 278 243 223 234 273 265 230 230 264 266 239 245 250 220 121 102 101 97 93 91 89 88 85 80 78 74 70 70 67 67 71 70 66 67 70 72 71 69 66 64 62 60 59 58 57 56 55 55 54 52 51 49 46 43 40 36 35 30 11 0 358 352 347 347 345 341 340 342 339
179 154 172 173 171 207 207 235 247 177 183 217 186 30 36 73 258 234 218 235 260 299 279 222 190 243 274 247 245 239 184 122 122 131 118 111 105 100 99 95 87 84 83 80 77 73 68 68 70 69 67 68 69 67 65 63 61 59 57 56 55 55 54 53 51 51 50 50 49 48 46 42 38 31 25 21 16 10 3 356 352 348 346 344 344 345
136 148 195 178 169 208 182 66 358 147 167 185 190 266 230 213 230 225 219 237 281 279 258 219 179 197 280 267 245 217 171 142 143 141 121 117 114 109 105 102 95 87 82 82 82 79 74 72 72 71 70 68 66 64 63 61 58 55 53 50 49 49 49 48 47 46 46 46 45 45 43 41 39 35 30 25 22 17 10 3 355 348 345 342 339 339
171 104 73 217 207 192 124 97 22 81 132 146 156 299 282 249 220 208 203 177 300 265 257 235 195 185 277 282 234 168 161 154 148 149 133 120 118 114 109 105 101 93 87 86 86 83 79 77 76 74 71 67 65 64 61 58 55 53 50 45 43 42 41 41 41 40 41 41 40 40 39 37 35 32 29 25 23 20 13 8 0 351 346 340 335 333
205 133 244 230 220 174 112 109 30 64 100 106 101 297 308 285 190 144 106 105 189 254 277 272 195 184 218 278 274 17 126 152 157 158 148 133 123 118 114 110 103 98 96 93 90 86 83 81 77 73 69 66 63 59 56 55 53 50 46 42 38 36 34 33 32 32 33 34 36 37 36 36 34 31 28 25 23 21 15 10 4 357 351 342 334 328
210 210 201 193 215 188 142 105 28 18 79 120 178 196 286 319 332 191 210 155 218 235 277 344 66 184 223 265 280 316 66 112 130 134 137 132 125 119 117 114 109 105 101 96 91 87 83 78 73 69 66 62 59 56 55 54 50 46 42 38 35 35 34 31 29 27 27 28 30 33 33 35 34 33 31 29 27 24 20 16 11 7 3 355 344 329
288 260 177 149 263 197 177 156 172 263 172 168 184 171 166 234 269 254 249 240 248 249 285 8 30 332 259 275 279 6 70 67 87 111 124 126 123 121 120 117 113 108 99 93 91 87 83 78 73 69 64 61 60 59 56 51 46 42 39 37 36 37 36 34 32 29 27 26 27 27 28 30 32 32 32 32 30 28 25 22 19 16 14 11 4 352
249 304 186 172 191 178 185 205 198 133 159 192 198 155 161 188 210 240 258 251 257 277 297 338 41 257 228 226 87 102 97 87 91 106 115 118 120 120 118 116 112 106 97 92 90 87 83 79 75 72 68 66 62 55 47 42 39 37 36 36 36 37 37 36 36 35 34 34 32 29 27 26 27 27 28 29 30 28 26 24 22 20 18 17 15 10
223 255 189 137 160 167 187 237 225 119 153 217 145 100 168 198 192 242 263 254 269 290 283 243 228 252 243 158 113 102 98 96 101 109 113 115 119 118 115 114 112 103 97 95 93 90 86 81 76 72 67 61 52 44 40 37 36 34 33 33 33 35 37 36 37 38 38 39 38 37 36 33 30 26 24 23 23 23 21 19 17 16 15 15 14 13
227 245 147 67 245 187 199 282 246 182 164 69 68 151 217 197 150 252 271 266 270 270 257 238 244 270 278 202 118 102 96 102 109 112 115 120 120 117 116 117 112 103 100 101 99 94 90 84 77 69 57 48 40 36 34 33 32 31 32 33 34 36 35 35 35 36 36 36 36 36 37 35 34 30 26 22 18 17 14 11 10 8 6 5 4 4
179 265 225 187 214 240 327 354 327 297 88 101 171 221 263 11 37 239 257 261 254 254 242 238 255 274 279 258 134 125 122 118 119 114 117 121 119 117 118 117 112 108 107 107 103 97 94 87 77 66 53 43 37 31 29 28 27 27 28 29 30 30 30 30 29 29 27 26 25 26 26 25 26 25 24 21 17 13 7 4 2 359 357 356 354 353
58 290 251 194 143 271 0 16 329 307 17 122 169 288 65 356 303 239 231 221 237 255 247 235 252 261 253 247 176 168 151 129 128 129 123 122 121 119 119 119 121 122 122 120 115 110 105 92 71 57 46 37 34 31 28 25 22 21 21 21 22 23 25 24 23 22 21 19 20 20 19 18 17 17 16 15 13 9 5 1 357 354 350 349 346 345
42 194 262 21 62 86 37 51 183 287 328 69 47 341 273 202 212 216 239 238 238 257 261 244 247 251 252 286 17 109 138 139 147 145 131 125 126 129 132 134 136 137 139 141 141 138 117 84 46 31 23 20 22 18 17 18 14 13 13 13 14 13 14 15 14 15 14 14 14 13 14 13 12 12 11 10 9 7 6 3 359 354 350 347 343 340
56 210 237 297 282 118 96 193 190 221 255 190 103 263 239 216 217 241 264 239 229 252 264 259 253 245 269 350 42 96 125 147 152 140 131 132 136 147 155 152 153 153 158 165 160 145 98 32 10 8 5 4 7 9 14 16 13 13 11 9 9 8 8 7 7 8 7 8 7 6 6 5 5 6 6 6 5 5 5 4 1 358 355 350 345 342
279 237 248 262 256 250 240 223 211 230 217 159 175 202 212 222 232 259 255 234 219 237 243 254 259 244 228 337 54 100 111 123 127 125 133 144 152 163 167 168 180 187 184 186 177 142 14 5 2 1 1 2 6 10 16 18 19 20 17 14 12 9 7 6 4 4 4 4 4 3 1 359 357 357 357 357 358 358 358 358 357 356 353 351 348 345
85 96 255 263 256 265 276 290 303 300 292 285 245 194 203 231 224 240 253 258 264 263 255 251 254 238 206 291 46 93 98 105 121 130 139 155 171 180 185 198 214 214 205 211 244 300 319 331 337 340 345 353 360 3 6 10 13 14 14 14 10 5 3 1 359 358 357 357 358 357 355 353 351 349 348 348 349 349 349 348 348 347 346 345 344 343
58 91 219 264 270 279 288 290 288 288 282 269 261 213 171 269 271 251 238 224 255 267 268 262 256 259 285 309 42 87 96 104 124 140 149 168 189 203 219 233 227 215 214 230 257 282 298 305 310 319 326 337 352 357 359 2 3 3 2 359 357 356 354 351 349 349 348 347 348 347 345 344 343 341 341 341 341 341 341 341 340 339 338 337 336 335
20 179 173 268 288 293 296 288 289 331 19 19 309 324 336 323 314 291 231 198 197 222 234 251 264 260 263 339 53 91 104 121 150 167 176 190 203 213 225 229 219 213 217 229 243 253 261 270 273 283 306 326 339 344 347 349 348 348 349 347 345 344 344 343 341 340 339 337 337 336 334 334 333 332 332 332 332 332 333 333 333 332 331 331 330 329
162 218 131 174 246 258 264 270 263 37 27 347 301 304 310 305 295 292 281 263 259 244 236 256 269 270 308 327 260 162 164 182 185 190 200 210 215 217 219 219 216 216 218 222 234 240 236 232 230 247 288 308 315 323 329 330 330 332 333 335 335 334 334 335 334 334 334 333 331 330 329 327 326 325 324 324 324 324 324 324 324 323 323 323 323 324
97 274 210 208 231 244 251 267 285 301 296 285 288 289 283 279 276 274 264 257 273 294 278 261 265 277 291 288 278 241 208 214 203 204 211 216 219 219 218 219 218 217 217 221 227 228 220 218 227 249 274 287 293 299 304 308 312 314 316 318 321 322 323 323 323 324 324 324 324 324 324 323 323 323 322 322 321 321 320 320 319 318 317 316 316 317
116 240 233 226 233 244 255 271 287 292 284 275 280 279 274 275 273 261 255 261 287 300 272 266 275 281 279 280 291 302 291 276 256 239 234 231 230 224 217 217 217 217 222 227 227 223 221 232 247 260 273 280 282 284 288 293 297 299 302 307 311 313 315 316 316 317 317 318 319 319 319 318 318 318 319 319 320 320 319 319 318 317 316 316 315 314
124 237 250 249 254 261 266 272 277 281 284 281 277 276 277 276 269 262 263 268 268 263 265 273 276 273 274 278 284 295 304 305 310 305 283 253 236 222 211 211 214 217 225 230 231 230 234 247 261 269 278 283 285 291 296 299 305 307 309 313 316 316 316 316 314 316 317 317 318 319 318 318 317 316 316 316 316 316 317 317 317 317 316 316 315 315
121 234 247 247 262 270 268 270 279 286 289 285 275 272 272 269 267 268 270 269 264 262 266 273 272 271 277 285 291 324 338 332 336 341 340 298 211 202 198 204 213 221 225 227 233 238 240 246 253 257 265 271 275 283 290 295 302 307 311 317 320 319 318 318 317 318 320 320 321 321 320 319 318 316 315 315 315 315 315 315 315 315 315 315 315 314
261 244 262 295 291 278 267 269 281 279 277 279 276 271 266 266 271 272 268 270 273 271 269 270 273 277 284 347 51 22 356 1 17 19 26 53 141 189 195 206 221 233 235 233 239 244 244 246 251 255 259 264 269 274 278 282 287 292 298 306 310 311 312 312 312 316 319 321 322 321 320 319 318 317 316 316 316 315 315 314 313 313 313 313 312 312
269 264 310 0 276 265 268 275 275 271 277 272 266 262 260 263 267 264 263 268 269 271 275 277 276 276 287 81 73 10 17 43 40 31 29 30 83 163 196 236 252 255 252 252 254 254 251 252 256 261 263 265 269 273 275 279 282 284 287 293 297 299 300 300 303 309 313 316 318 317 317 316 315 315 315 315 315 315 314 313 312 312 312 311 310 309
193 185 245 244 250 262 269 276 276 288 280 264 258 254 252 254 257 258 260 260 259 264 270 270 264 251 180 93 33 2 55 59 36 23 19 2 343 307 269 270 272 272 270 270 270 267 264 263 263 266 267 268 273 277 278 279 281 284 287 291 293 293 292 295 300 305 309 312 313 312 313 313 312 313 314 314 314 313 313 312 312 311 311 310 308 307
195 182 209 233 246 260 268 290 356 227 250 259 246 217 234 246 254 262 262 257 258 261 257 263 267 222 130 99 72 58 51 32 9 356 342 325 308 289 284 278 275 277 280 282 283 282 280 278 275 272 271 274 277 277 274 275 282 290 293 293 292 290 290 294 299 305 309 311 312 311 311 311 310 311 312 312 311 311 310 309 309 309 308 307 306 304
199 196 210 227 236 253 270 300 272 240 243 257 180 200 232 245 247 255 261 262 264 267 272 281 291 85 90 80 70 52 20 350 330 313 304 304 293 278 276 276 275 277 283 286 287 289 291 292 290 284 278 275 272 268 270 281 292 298 298 295 293 293 295 298 303 308 311 312 312 312 312 311 310 309 309 309 308 307 306 305 305 304 304 302 301 301
201 206 213 221 232 247 241 228 239 252 265 273 256 236 241 249 240 253 268 265 256 260 272 294 97 95 81 69 56 27 348 323 308 302 304 308 296 279 273 273 274 278 285 291 294 296 300 303 302 294 281 271 266 268 279 292 299 299 298 296 297 299 302 304 307 310 312 313 313 313 312 310 309 308 307 307 306 304 302 301 301 301 301 299 299 299
201 203 216 228 229 231 229 230 250 288 292 272 264 269 113 177 211 226 258 260 256 250 162 129 114 98 85 70 36 349 327 321 304 301 311 315 294 279 276 273 276 282 287 293 297 298 300 301 298 290 276 266 268 278 289 296 299 299 300 302 304 307 309 310 312 314 314 313 313 312 311 309 307 307 306 305 304 302 302 301 301 301 300 298 297 297
203 201 203 225 240 232 239 251 259 272 271 253 228 212 107 88 72 53 288 279 308 349 129 128 122 105 89 52 342 328 328 331 301 300 312 319 305 299 287 266 265 273 281 289 293 294 294 293 289 282 274 274 282 290 295 299 302 305 308 309 311 312 313 314 315 315 315 314 313 312 310 308 307 307 306 306 305 304 304 303 302 300 299 296 294 294
192 207 194 213 246 238 240 253 248 251 262 208 172 183 134 82 43 19 352 286 269 108 113 115 121 125 108 333 288 273 295 280 263 284 293 300 312 314 297 275 270 274 282 289 292 291 292 290 285 281 281 286 293 297 300 303 307 309 310 311 312 313 314 315 315 315 314 313 312 310 309 309 309 309 308 307 306 305 304 302 301 300 299 297 294 293
120 193 187 209 234 232 233 245 242 249 262 191 173 192 184 72 55 25 318 270 194 145 122 109 124 168 167 268 266 224 197 214 254 277 280 280 290 294 289 284 280 276 279 286 289 292 293 291 289 288 291 295 298 301 304 306 308 309 309 311 312 313 314 315 314 313 312 310 310 310 310 311 311 311 310 308 307 306 305 304 303 302 301 300 298 296
153 203 212 216 227 230 235 246 250 252 243 213 215 243 242 78 63 282 269 247 181 175 166 123 272 260 249 246 240 233 242 253 265 276 279 281 286 289 288 285 280 274 278 283 286 292 296 295 295 296 298 300 303 304 306 306 307 308 309 311 312 314 314 314 312 311 310 310 311 313 314 314 313 312 312 310 309 309 307 306 306 305 304 303 301 298
147 128 237 226 226 229 232 239 255 266 235 182 218 256 219 134 114 244 230 169 176 188 204 251 266 272 263 250 247 252 265 274 275 275 280 284 288 290 287 283 277 274 277 279 282 291 297 299 299 299 300 302 304 304 305 305 307 309 311 312 313 314 313 312 311 311 312 314 316 316 316 315 314 313 312 312 311 310 309 309 309 308 307 306 304 302
171 167 228 224 208 209 230 238 244 265 220 151 133 279 193 183 224 224 183 173 188 201 225 249 263 278 273 262 263 265 270 276 276 276 281 285 289 291 287 280 274 272 274 277 282 292 299 300 299 300 301 303 303 304 305 307 309 310 311 313 314 313 311 311 312 314 316 318 318 317 316 315 314 314 313 313 313 312 311 310 310 310 309 308 307 306
200 175 206 226 190 178 212 226 202 197 199 177 174 205 221 227 244 240 211 202 205 215 235 251 265 277 276 270 271 269 268 272 275 279 283 284 288 290 283 276 274 274 275 279 286 295 299 299 299 300 301 302 303 305 307 309 311 311 312 314 313 312 312 313 316 318 319 318 317 316 316 316 315 315 314 314 315 314 313 313 313 312 312 310 309 307
210 198 210 234 229 194 213 240 247 303 289 228 197 214 238 250 259 260 256 251 247 252 260 264 271 278 280 277 273 269 269 274 279 283 284 285 287 283 276 273 273 273 275 281 289 295 297 298 299 300 301 302 303 306 309 311 311 312 313 313 312 313 316 318 320 319 318 317 317 317 317 317 316 316 317 318 319 318 317 316 314 312 311 310 308 306
223 226 224 233 256 257 253 256 267 283 278 259 235 234 246 259 267 266 262 260 263 267 269 268 270 274 274 269 263 264 271 276 279 282 283 283 282 276 272 271 271 273 278 284 290 294 295 296 297 299 300 301 304 308 310 311 312 313 313 313 315 318 320 320 319 318 317 318 319 319 319 319 320 320 320 320 319 317 315 313 312 310 310 308 306 304
238 241 240 238 256 262 255 245 246 256 262 263 260 256 256 262 266 266 265 264 265 266 265 264 267 267 264 261 263 271 278 280 281 282 282 279 275 271 271 272 272 276 283 288 291 294 295 296 297 298 300 303 307 309 310 311 312 313 314 316 319 320 319 318 317 317 318 320 321 322 323 324 322 320 318 316 315 314 313 313 312 310 307 306 304 303
237 241 241 232 238 244 242 240 247 254 259 262 264 261 260 261 261 261 264 266 267 267 267 267 267 263 262 270 277 282 284 282 280 279 276 271 269 269 271 273 276 281 286 289 292 294 295 296 298 299 302 306 309 310 311 312 313 315 317 319 320 319 318 317 318 319 320 322 324 326 325 323 319 317 317 317 318 318 317 316 314 310 307 306 305 303
238 242 240 227 235 250 252 241 245 255 261 260 259 259 261 262 262 262 262 263 265 270 270 265 262 263 268 277 282 284 282 281 278 274 271 270 270 271 273 275 280 284 287 290 292 294 296 297 298 301 305 308 310 311 311 312 314 318 320 319 318 318 318 318 319 321 323 325 327 326 324 320 319 320 321 322 322 320 319 318 315 311 307 306 305 301
239 243 247 246 245 249 245 235 236 243 253 254 257 261 264 264 261 260 260 261 263 268 268 263 262 268 275 280 283 282 281 281 279 275 273 273 273 274 277 280 283 285 287 290 292 293 295 297 300 303 306 308 310 311 311 311 316 321 320 317 318 318 318 320 321 323 326 328 327 325 323 322 324 326 325 324 323 320 318 318 317 313 307 305 304 298
235 236 239 242 245 245 248 244 238 235 241 251 258 266 270 267 260 255 257 261 263 263 261 259 261 269 276 280 281 281 280 279 278 276 275 274 275 277 280 282 283 286 289 291 293 294 295 298 301 304 306 309 311 311 310 313 319 321 318 316 318 319 320 323 324 325 327 328 326 324 325 327 328 329 327 325 323 320 318 317 318 317 314 310 307 303